User: anonymous   Login
Location: Caltech
(34.1382°N, 118.1253°W)
Time: 21:58:21
(UTC-08:00)
Language:

ERBS - Orbit

View from above orbital plane
View from above orbital plane
View from above satellite
View from above satellite

Ground track
Ground track

The orbit data is extracted from the following two-line orbital elements,

1 15354U 84108B   17058.53553674  .00003598  00000-0  89713-4 0  9995
2 15354  57.0069 250.2277 0006031 243.8281 116.2154 15.42867341781276
Epoch (UTC): 27 February 2017 12:51:10
Eccentricity: 0.0006031
inclination: 57.0069°
perigee height: 433 km
apogee height: 442 km
right ascension of ascending node: 250.2277°
argument of perigee: 243.8281°
revolutions per day: 15.42867341
mean anomaly at epoch: 116.2154°
orbit number at epoch: 78127

The dashed part of the orbit path shows where the satellite is in the earth's shadow,  

DLR